When you browse on this site, cookies collect data to enhance your experience and personalize the content and advertising you see.
Visit our Privacy Policy to learn more. By continuing to use the site, you agree to this use of cookies and data.
  • Em Portugal
  • Lista de países
  • Para 7 dias
  • Temperatura da água
  • Mapas de satélite
  • Mapa do tempo
  • Widgets de tempo
  • user-avatar
    Iniciar Sessão

    Previsão horária em Sherpur

    Hoje, 22 Julho, Segunda-feira

    Tempo Temperatura Precipitação Vento Pressão Humidade
    00:00 +24°C° 0 mm 2 m/s 609 mmHg 31%
    01:00 +23°C° 0 mm 1 m/s 609 mmHg 32%
    02:00 +22°C° 0 mm 1 m/s 608 mmHg 34%
    03:00 +22°C° 0 mm 1 m/s 608 mmHg 33%
    04:00 +21°C° 0 mm 1 m/s 608 mmHg 32%
    05:00 +20°C° 0 mm 2 m/s 608 mmHg 32%
    06:00 +24°C° 0 mm 1 m/s 609 mmHg 27%
    07:00 +26°C° 0 mm 1 m/s 611 mmHg 23%
    08:00 +28°C° 0 mm 1 m/s 612 mmHg 19%
    09:00 +30°C° 0 mm 1 m/s 612 mmHg 17%
    10:00 +31°C° 0 mm 2 m/s 612 mmHg 15%
    11:00 +34°C° 0 mm 2 m/s 612 mmHg 13%
    12:00 +35°C° 0 mm 3 m/s 612 mmHg 12%
    13:00 +36°C° 0 mm 4 m/s 612 mmHg 11%
    14:00 +37°C° 0 mm 5 m/s 613 mmHg 10%
    15:00 +38°C° 0 mm 6 m/s 612 mmHg 11%
    16:00 +38°C° 0 mm 6 m/s 612 mmHg 11%
    17:00 +36°C° 0 mm 7 m/s 611 mmHg 12%
    18:00 +34°C° 0 mm 6 m/s 611 mmHg 15%
    19:00 +32°C° 0 mm 5 m/s 611 mmHg 18%
    20:00 +29°C° 0 mm 3 m/s 610 mmHg 22%
    21:00 +28°C° 0 mm 3 m/s 610 mmHg 27%
    22:00 +26°C° 0 mm 2 m/s 610 mmHg 33%
    23:00 +25°C° 0 mm 1 m/s 609 mmHg 39%

    Amanhã, 23 Julho, Terça-feira

    Tempo Temperatura Precipitação Vento Pressão Humidade
    00:00 +24°C° 0 mm 1 m/s 609 mmHg 40%
    01:00 +23°C° 0 mm 1 m/s 609 mmHg 42%
    02:00 +23°C° 0 mm 1 m/s 608 mmHg 43%
    03:00 +22°C° 0 mm 1 m/s 608 mmHg 43%
    04:00 +22°C° 0 mm 1 m/s 608 mmHg 43%
    05:00 +21°C° 0 mm 1 m/s 607 mmHg 43%
    06:00 +21°C° 0 mm 0 m/s 608 mmHg 38%
    07:00 +23°C° 0 mm 0 m/s 609 mmHg 32%
    08:00 +26°C° 0 mm 0 m/s 610 mmHg 27%
    09:00 +29°C° 0 mm 1 m/s 611 mmHg 23%
    10:00 +31°C° 0 mm 1 m/s 611 mmHg 20%
    11:00 +32°C° 0 mm 1 m/s 611 mmHg 16%
    12:00 +35°C° 0 mm 2 m/s 611 mmHg 15%
    13:00 +36°C° 0 mm 2 m/s 611 mmHg 13%
    14:00 +37°C° 0 mm 2 m/s 611 mmHg 12%
    15:00 +37°C° 0 mm 3 m/s 611 mmHg 12%
    16:00 +37°C° 0 mm 3 m/s 611 mmHg 11%
    17:00 +38°C° 0 mm 4 m/s 611 mmHg 11%
    18:00 +35°C° 0 mm 4 m/s 610 mmHg 14%
    19:00 +33°C° 0 mm 3 m/s 610 mmHg 17%
    20:00 +30°C° 0 mm 3 m/s 609 mmHg 19%
    21:00 +28°C° 0 mm 2 m/s 609 mmHg 22%
    22:00 +27°C° 0 mm 2 m/s 609 mmHg 24%
    23:00 +26°C° 0 mm 2 m/s 608 mmHg 26%

    Depois de amanhã, 24 Julho, Quarta-feira

    Tempo Temperatura Precipitação Vento Pressão Humidade
    00:00 +25°C° 0 mm 1 m/s 608 mmHg 27%
    01:00 +24°C° 0 mm 1 m/s 607 mmHg 27%
    02:00 +24°C° 0 mm 1 m/s 607 mmHg 28%
    03:00 +23°C° 0 mm 1 m/s 607 mmHg 28%
    04:00 +23°C° 0 mm 1 m/s 607 mmHg 28%
    05:00 +22°C° 0 mm 1 m/s 606 mmHg 28%
    06:00 +24°C° 0 mm 1 m/s 607 mmHg 24%
    07:00 +27°C° 0 mm 1 m/s 609 mmHg 21%
    08:00 +29°C° 0 mm 1 m/s 610 mmHg 17%
    09:00 +30°C° 0 mm 1 m/s 610 mmHg 15%
    10:00 +32°C° 0 mm 1 m/s 610 mmHg 13%
    11:00 +35°C° 0 mm 2 m/s 611 mmHg 12%
    12:00 +36°C° 0 mm 2 m/s 611 mmHg 10%
    13:00 +37°C° 0 mm 2 m/s 610 mmHg 9%
    14:00 +38°C° 0 mm 2 m/s 610 mmHg 8%
    15:00 +38°C° 0 mm 3 m/s 610 mmHg 8%
    16:00 +38°C° 0 mm 4 m/s 610 mmHg 8%
    17:00 +39°C° 0 mm 5 m/s 609 mmHg 8%
    18:00 +36°C° 0 mm 4 m/s 609 mmHg 10%
    19:00 +33°C° 0 mm 4 m/s 608 mmHg 12%
    20:00 +30°C° 0 mm 3 m/s 608 mmHg 14%
    21:00 +28°C° 0 mm 3 m/s 608 mmHg 16%
    22:00 +27°C° 0 mm 2 m/s 607 mmHg 17%
    23:00 +26°C° 0 mm 2 m/s 607 mmHg 19%

    25 Julho, Quinta-feira

    Tempo Temperatura Precipitação Vento Pressão Humidade
    00:00 +25°C° 0 mm 2 m/s 607 mmHg 21%
    01:00 +24°C° 0 mm 1 m/s 606 mmHg 22%
    02:00 +23°C° 0 mm 1 m/s 606 mmHg 23%
    03:00 +23°C° 0 mm 1 m/s 606 mmHg 24%
    04:00 +22°C° 0 mm 1 m/s 606 mmHg 25%
    05:00 +21°C° 0 mm 1 m/s 606 mmHg 26%
    06:00 +24°C° 0 mm 1 m/s 607 mmHg 22%
    07:00 +26°C° 0 mm 1 m/s 608 mmHg 19%
    08:00 +28°C° 0 mm 1 m/s 609 mmHg 16%
    09:00 +30°C° 0 mm 1 m/s 609 mmHg 14%
    10:00 +32°C° 0 mm 1 m/s 610 mmHg 12%
    11:00 +33°C° 0 mm 1 m/s 610 mmHg 11%
    12:00 +35°C° 0 mm 2 m/s 610 mmHg 10%
    13:00 +37°C° 0 mm 2 m/s 610 mmHg 9%
    14:00 +38°C° 0 mm 2 m/s 610 mmHg 7%
    15:00 +38°C° 0 mm 2 m/s 609 mmHg 7%
    16:00 +38°C° 0 mm 3 m/s 609 mmHg 7%
    17:00 +38°C° 0 mm 4 m/s 609 mmHg 7%
    18:00 +36°C° 0 mm 4 m/s 608 mmHg 10%
    19:00 +33°C° 0 mm 4 m/s 608 mmHg 13%
    20:00 +30°C° 0 mm 4 m/s 607 mmHg 16%
    21:00 +29°C° 0 mm 3 m/s 607 mmHg 20%
    22:00 +27°C° 0 mm 3 m/s 607 mmHg 25%
    23:00 +26°C° 0 mm 2 m/s 607 mmHg 29%

    26 Julho, Sexta-feira

    Tempo Temperatura Precipitação Vento Pressão Humidade
    00:00 +25°C° 0 mm 2 m/s 607 mmHg 30%
    01:00 +24°C° 0 mm 2 m/s 606 mmHg 31%
    02:00 +23°C° 0 mm 1 m/s 606 mmHg 32%
    03:00 +23°C° 0 mm 1 m/s 605 mmHg 33%
    04:00 +22°C° 0 mm 1 m/s 605 mmHg 35%
    05:00 +21°C° 0 mm 1 m/s 605 mmHg 36%
    06:00 +23°C° 0 mm 1 m/s 606 mmHg 32%
    07:00 +26°C° 0 mm 1 m/s 607 mmHg 27%
    08:00 +28°C° 0 mm 1 m/s 608 mmHg 23%
    09:00 +29°C° 0 mm 1 m/s 608 mmHg 20%
    10:00 +31°C° 0 mm 1 m/s 609 mmHg 16%
    11:00 +34°C° 0 mm 2 m/s 609 mmHg 13%
    12:00 +35°C° 0 mm 2 m/s 609 mmHg 13%
    13:00 +36°C° 0 mm 3 m/s 609 mmHg 12%
    14:00 +37°C° 0 mm 3 m/s 609 mmHg 11%
    15:00 +36°C° 0 mm 4 m/s 609 mmHg 15%
    16:00 +36°C° 0 mm 5 m/s 609 mmHg 18%
    17:00 +35°C° 0 mm 5 m/s 609 mmHg 22%
    18:00 +33°C° 0.1 mm 5 m/s 608 mmHg 37%
    19:00 +29°C° 0.1 mm 4 m/s 607 mmHg 52%
    20:00 +26°C° 0.1 mm 3 m/s 607 mmHg 67%
    21:00 +25°C° 0.3 mm 3 m/s 607 mmHg 70%
    22:00 +24°C° 0.3 mm 2 m/s 607 mmHg 73%
    23:00 +24°C° 0.3 mm 2 m/s 607 mmHg 75%

    27 Julho, Sábado

    Tempo Temperatura Precipitação Vento Pressão Humidade
    00:00 +23°C° 0.1 mm 1 m/s 607 mmHg 76%
    01:00 +23°C° 0.1 mm 1 m/s 607 mmHg 77%
    02:00 +22°C° 0.1 mm 1 m/s 607 mmHg 77%
    03:00 +22°C° 0.1 mm 1 m/s 607 mmHg 77%
    04:00 +21°C° 0.1 mm 1 m/s 606 mmHg 77%
    05:00 +21°C° 0.1 mm 1 m/s 606 mmHg 77%
    06:00 +22°C° 0 mm 1 m/s 607 mmHg 71%
    07:00 +24°C° 0 mm 1 m/s 607 mmHg 65%
    08:00 +25°C° 0 mm 1 m/s 608 mmHg 59%
    09:00 +27°C° 0 mm 1 m/s 608 mmHg 49%
    10:00 +29°C° 0 mm 2 m/s 609 mmHg 40%
    11:00 +30°C° 0 mm 2 m/s 610 mmHg 30%
    12:00 +32°C° 0 mm 2 m/s 610 mmHg 26%
    13:00 +34°C° 0 mm 3 m/s 610 mmHg 22%
    14:00 +35°C° 0 mm 4 m/s 610 mmHg 18%
    15:00 +35°C° 0 mm 4 m/s 610 mmHg 21%
    16:00 +35°C° 0 mm 4 m/s 609 mmHg 23%
    17:00 +34°C° 0 mm 5 m/s 609 mmHg 25%
    18:00 +32°C° 0 mm 4 m/s 609 mmHg 32%
    19:00 +29°C° 0 mm 3 m/s 608 mmHg 39%
    20:00 +28°C° 0 mm 2 m/s 608 mmHg 45%
    21:00 +27°C° 0 mm 2 m/s 608 mmHg 48%
    22:00 +26°C° 0 mm 2 m/s 608 mmHg 51%
    23:00 +25°C° 0 mm 2 m/s 608 mmHg 54%
    Mostrar mais